Home   Weather   Lowell   Past weeks

Flag for USA Past Weather in Lowell, Massachusetts, USA — Yesterday and Last 2 Weeks

63 °F


Feels Like: 63 °F
Forecast: 42 / 63 °F
Wind: 6 mph from Northwest

Location: Hanscom Field

Current Time: Oct 22, 2016 at 9:25:02 AM

Latest Report: Oct 22, 2016 at 8:56 AM

Visibility: 1 mi

Pressure: 29.28 "Hg

Humidity: 97%

Dew Point: 62 °F

Location of LowellLocation

Past Weather in Lowell — Graph


Lowell Temperature Yesterday

Maximum temperature yesterday: 75 °F (at 12:56 PM)
Minimum temperature yesterday: 56 °F (at 4:56 AM)
Average temperature yesterday: 64 °F

High & Low Weather Summary for the Past Weeks

High79 °F (Oct 19, 12:56 PM)100% (Oct 21, 9:53 PM)30.52 "Hg (Oct 21, 9:53 PM)
Low29 °F (Oct 15, 6:56 AM)29% (Oct 11, 1:56 PM)29.26 "Hg (Oct 22, 7:03 AM)
Average56 °F74%30.11 "Hg
* Reported Oct 7 7:56 AM — Oct 22 7:56 AM, Lowell, Weather by CustomWeather, © 2016

Note: Actual official high and low records may vary slightly from our data, if they occured in-between our weather recording intervals... More about our weather records


Lowell Weather History for the Previous 24 Hours

Scroll right to see more
Time TempWeatherWind HumidityBarometerVisibility
7:56 AM
Sat, Oct 22
62 °FFog.5 mph100%29.28 "Hg3 mi
7:03 AM62 °FFog.No wind93%29.26 "Hg1 mi
6:56 AM62 °FFog.No wind93%29.29 "Hg2 mi
5:56 AM62 °FMostly cloudy.3 mph93%29.31 "Hg7 mi
4:56 AM62 °FFog.7 mph96%29.31 "Hg5 mi
3:56 AM63 °FFog.5 mph93%29.32 "Hg2 mi
3:03 AM63 °FFog.8 mph93%29.31 "Hg1 mi
2:56 AM63 °FFog.7 mph93%29.34 "Hg1 mi
1:56 AM63 °FFog.6 mph97%29.37 "Hg2 mi
12:56 AM64 °FFog.5 mph97%29.39 "Hg1 mi
11:56 PM
Fri, Oct 21
64 °FLight rain. Low clouds.3 mph97%29.41 "Hg10 mi
11:03 PM64 °FLight rain. Mostly cloudy.5 mph100%29.40 "Hg9 mi
10:56 PM65 °FLight rain. Mostly cloudy.No wind100%29.44 "Hg10 mi
9:53 PM64 °FRain. Fog.6 mph100%29.46 "Hg4 mi
9:03 PM65 °FThunderstorms. Fog.8 mph97%29.47 "Hg3 mi
8:58 PM65 °FHeavy rain. Fog.7 mph97%29.46 "Hg2 mi
7:56 PM65 °FThunderstorms. Fog.13 mph94%29.51 "Hg2 mi
6:56 PM66 °FLight rain. Fog.13 mph93%29.55 "Hg5 mi
5:56 PM67 °FLight rain. Fog.12 mph87%29.59 "Hg6 mi
4:56 PM69 °FFog.10 mph84%29.63 "Hg3 mi
4:03 PM72 °FMostly cloudy.12 mph76%29.63 "Hg10 mi
3:56 PM72 °FMostly cloudy.12 mph76%29.67 "Hg10 mi
2:56 PM75 °FMostly cloudy.12 mph66%29.69 "Hg10 mi
1:56 PM73 °FLight rain. Cloudy.9 mph74%29.73 "Hg10 mi
12:56 PM75 °FPartly sunny.13 mph66%29.76 "Hg10 mi
11:56 AM73 °FPartly sunny.13 mph76%29.81 "Hg10 mi
11:03 AM70 °FBroken clouds.8 mph84%29.81 "Hg10 mi
10:56 AM69 °FPartly sunny.8 mph87%29.84 "Hg10 mi
10:03 AM61 °FFog.No wind93%29.83 "Hg2 mi
9:56 AM61 °FFog.No wind93%29.87 "Hg1 mi
Weather by CustomWeather, © 2016

See weather overviewHow to use our weather pages